Vacaville, CA

2:26 AM PST on February 21, 2018 (GMT -0800)
Nut Tree

Weather History for KVCB - May, 2013

Change the Weather History Date:

Friday, May 31, 2013

  Actual Average Record
Temperature  
Mean Temperature 75 °F -  
Max Temperature 98 °F 85 °F 106 °F (2001)
Min Temperature 53 °F 53 °F 42 °F (1969)
Cooling Degree Days 10    
Growing Degree Days 25 (Base 50)    
Moisture  
Dew Point 36 °F    
Average Humidity 32    
Maximum Humidity 74    
Minimum Humidity 4    
Precipitation  
Precipitation 0.00 in - - ()
Sea Level Pressure  
Sea Level Pressure 29.93 in    
Wind  
Wind Speed 3 mph (NNE)    
Max Wind Speed 9 mph    
Max Gust Speed 21 mph    
Visibility 10 miles    
Events      
Averages and records for this station are not official NWS values.
T = Trace of Precipitation, MM = Missing Value Source: NWS Daily Summary

Daily Weather History Graph

Daily Weather History Graph

Search for Another Location

Airport or City:

Trip Planner

Search our weather history database for the weather conditions in past years. The results will help you decide how hot, cold, wet, or windy it might be!

Date:

Astronomy

May. 31, 2013 Rise Set
Actual Time 5:46 AM PDT 8:25 PM PDT
Civil Twilight 5:15 AM PDT 8:56 PM PDT
Nautical Twilight 4:36 AM PDT 9:35 PM PDT
Astronomical Twilight 3:53 AM PDT 10:18 PM PDT
Moon 1:06 AM PDT (5/31) 1:02 PM PDT (5/31)
Length of Visible Light 15h 41m
Length of Day
14h 39m
Waning Gibbous, 50% of the Moon is Illuminated
May 31
Waning Gibbous
May 31
Last Quarter
Jun 8
New
Jun 16
First Quarter
Jun 23
Full

Hourly Weather History & Observations

Time (PDT) Temp. Dew Point Humidity Pressure Visibility Wind Dir Wind Speed Gust Speed Precip Events Conditions
12:53 AM 64.0 °F 43.0 °F 46% 29.94 in 10.0 mi SSW 3.5 mph - N/A   Clear
1:53 AM 57.9 °F 43.0 °F 58% 29.94 in 10.0 mi Calm Calm - N/A   Clear
2:53 AM 55.9 °F 46.0 °F 69% 29.96 in 10.0 mi Calm Calm - N/A   Clear
3:53 AM 55.0 °F 44.1 °F 67% 29.96 in 10.0 mi Calm Calm - N/A   Clear
4:53 AM 53.1 °F 45.0 °F 74% 29.96 in 10.0 mi Calm Calm - N/A   Clear
5:53 AM 55.0 °F 45.0 °F 69% 29.97 in 10.0 mi Calm Calm - N/A   Clear
6:53 AM 59.0 °F 46.0 °F 62% 29.99 in 10.0 mi Calm Calm - N/A   Clear
7:53 AM 66.9 °F 46.9 °F 49% 30.00 in 10.0 mi SSE 3.5 mph - N/A   Clear
8:53 AM 75.0 °F 44.1 °F 33% 30.00 in 10.0 mi East 3.5 mph - N/A   Clear
9:53 AM 82.9 °F 35.1 °F 18% 29.99 in 10.0 mi North 8.1 mph 17.3 mph N/A   Clear
10:53 AM 84.9 °F 39.0 °F 20% 29.98 in 10.0 mi NNE 5.8 mph - N/A   Clear
11:53 AM 88.0 °F 37.9 °F 17% 29.98 in 10.0 mi North 9.2 mph - N/A   Clear
12:53 PM 91.0 °F 35.1 °F 14% 29.96 in 10.0 mi North 8.1 mph 20.7 mph N/A   Clear
1:53 PM 91.9 °F 28.0 °F 10% 29.94 in 10.0 mi Variable 5.8 mph 18.4 mph N/A   Clear
2:53 PM 95.0 °F 18.0 °F 6% 29.92 in 10.0 mi Variable 6.9 mph - N/A   Clear
3:53 PM 97.0 °F 10.0 °F 4% 29.90 in 10.0 mi North 8.1 mph - N/A   Clear
4:53 PM 96.1 °F 25.0 °F 8% 29.88 in 10.0 mi Variable 5.8 mph - N/A   Clear
5:53 PM 97.0 °F 3.9 °F 4% 29.87 in 10.0 mi Variable 5.8 mph - N/A   Clear
6:53 PM 93.9 °F 18.0 °F 6% 29.88 in 10.0 mi East 6.9 mph - N/A   Clear
7:53 PM 87.1 °F 45.0 °F 23% 29.88 in 10.0 mi SSE 4.6 mph - N/A   Clear
8:53 PM 78.1 °F 42.1 °F 28% 29.88 in 10.0 mi WNW 3.5 mph - N/A   Clear
9:53 PM 71.1 °F 41.0 °F 34% 29.89 in 10.0 mi Calm Calm - N/A   Clear
10:53 PM 77.0 °F 39.9 °F 26% 29.89 in 10.0 mi SW 5.8 mph - N/A   Clear
11:53 PM 73.9 °F 44.1 °F 34% 29.88 in 10.0 mi SSW 3.5 mph - N/A   Clear